Location: Tamazert
(32.6352°N, 5.2072°W)
Time: 03:56:06
(UTC+00:00)

Vanguard 2 Rocket - Pass Details

Date: 09 October 2022
Orbit: 555 x 3321 km, 32.9° (Epoch: 05 December)

Event Time Altitude Azimuth Distance (km) Brightness Sun altitude
Rises 16:25:49 0° 187° (S) 6,681 11.7 17.5°
Reaches altitude 10° 16:32:42 10° 170° (S) 6,019 11.2 16.1°
Maximum altitude 16:43:38 18° 135° (SE) 5,608 10.7 13.9°
Drops below altitude 10° 16:54:36 10° 101° (E) 6,124 10.6 11.7°
Sets 17:01:28 0° 85° (E) 6,854 10.7 10.3°
